USA 57

Satellite information

Favourite Embed

Satellite Type and Status

PAYLOADIN ORBIT

Key statistics

Satellite USA 57 at a glance.

Uptime

12872

Days in orbit

Revolutions

≈ 14.7

Per day

Orbit

LEO

Low Earth Orbit

Inclination

89.8

Latest

Satellite identification and parameters

Extended collection of information and parameters for USA 57.

Object identification

Identified? True

Debris? False

Object name: USA 57

International designator: 1990-031B

Object number (NORAD): 20561

Object ID (CCSDS): 20561

Country: UNITED STATES OF AMERICA (US)

Current information (Y/N): Y

RCS size: MEDIUM

Orbital parameters

Period: 97.783 minutes

Inclination: 89.8461 deg

SMA: 7030.747 km

Apoapsis: 699.29 km

Periapsis: 605.935 km

RAAN: 271.3979 deg

Eccentricy: 0.0066391

Argument of periapsis: 194.8036 deg

Mean anomaly: 165.1243 deg

Mean motion: 14.72653307 rev/day

Mean motion (dot): 0.00000485 rev/day2

B* drag term: 0.000071099 1/REarth

Two-line elements (TLE)

Creation date: July 8, 2025, 2:27 a.m.

Reference frame: TEME

Reference center: EARTH

Epoch: July 7, 2025, 6:30 p.m. UTC

TLE line 0: 0 USA 57

TLE line 1: 1 20561U 90031B 25188.77131813 .00000485 00000-0 71099-4 0 9999

TLE line 2: 2 20561 89.8461 271.3979 0066391 194.8036 165.1243 14.72653307 64488

Live tracking on map

Real-time ground track for satellite USA 57.

In-orbit conjunctions

There are no conjunctions computed for USA 57, at the moment. Check back to stay up to date, as we update our databases every day.

Go to all conjunctions

Associated space launch

POGS & SSR was a satellite designed to measure the Earth's magnetic field. TEX and SCE studied ionospheric effects on RF transmissions.

USA 57 was lifted into orbit during the mission ‘Atlas E Altair | POGS & SSR, TEX, SCE’, on board a Atlas E Altair space rocket.

The launch took place on April 11, 1990, 3 p.m. from Space Launch Complex 3W.

For more information about the launch, click the button.

Launch to space Atlas E Altair | POGS & SSR, TEX, SCE
Atlas E Altair | POGS & SSR, TEX, SCE

Agency: N/A

Status: Launch Successful

Launch date: April 11, 1990, 3 p.m. UTC

Rocket: Atlas E Altair

Launch pad: Space Launch Complex 3W

Location: Vandenberg SFB, CA, USA

...

Latest news about this satellite

There are no fresh news available about this satellite. Check back as we update our databases every day.


Newsletter sign-up

Weekly statistics, charts and insights to help you stay on top of the space industry.